sat.trackr.live / text

‹ back to catalog

STARLINK-30171

NORAD 57469 · 2023-107N

PAYLOAD ACTIVE UNKNOWN

§ Identity

Operator
Country
US
Launch date
2023-07-28
Launch site
AFETR
Launch vehicle
Mass (kg)
RCS (m²)

Purposes: comms

External: N2YO · Heavens-Above · Gunter

§ Orbital elements

Epoch: 2026-09-19T04:56:30.921216Z

Period
94.27 min
Inclination
43.0037°
Eccentricity
0.0001200
Mean motion
15.27584034 rev/d
Perigee alt
482.2 km
Apogee alt
483.9 km
Semi-major
6,861.2 km
B*
5.3774e-5
RAAN
326.5759°
Arg perigee
266.6989°
Mean anomaly
93.3726°
Rev number
17,470

§ Raw data

STARLINK-301711 57469U 23107N   26262.20591344  .00001218  00000+0  53774-4 0  99912 57469  43.0037 326.5759 0001200 266.6989  93.3726 15.27584034174704

JSON: /api/v1/satellites/57469 · /tle

For live sub-satellite position, see the globe view (requires WebGL).

§ Visibility from observer

Set your observer location to see the next 7 days of passes ≥ 10°. The values pass through the URL so the page stays shareable.

No JS? Fill the form by hand. The geolocation button needs JavaScript.